Regional Weather Roundup
Issued by NWS

Home | Current Version | Previous Version | Graphics & Text | Print | Product List | Glossary On
Versions: 1 2 3 4 5 6 7 8 9 10 11 12 13 14 15 16 17 18 19 20 21 22 23 24 25 26 27 28 29 30 31 32 33 34 35 36 37 38 39 40 41 42 43 44 45 46 47 48 49 50
826
ASUS43 KDTX 160801
RWRMI
MICHIGAN HOURLY REGIONAL WEATHER ROUNDUP
NATIONAL WEATHER SERVICE DETROIT/PONTIAC MI
300 AM EST SAT DEC 16 2017

NOTE: "FAIR" INDICATES FEW OR NO CLOUDS BELOW 12,000 FEET WITH NO
SIGNIFICANT WEATHER AND/OR OBSTRUCTION TO VISIBILITY.

MIZ047>049-052>055-059>063-066>070-074>076-081>083-160900-
SOUTHEAST LOWER MICHIGAN

CITY           SKY/WX    TMP DP  RH WIND       PRES   REMARKS
ALMA           LGT SNOW  23  22  96 CALM      29.88R
BAD AXE        CLOUDY    20  15  79 SW10      29.87R WCI   9
CARO           CLOUDY    22  17  83 SW3       29.88R
DETROIT CITY   LGT SNOW  28  23  81 SW13      29.90S WCI  17
DETROIT        LGT SNOW  31  25  78 SW16      29.92R WCI  20
FLINT          LGT SNOW  22  21  96 CALM      29.89R FOG
GROSSE ILE     LGT SNOW  29  25  84 SW9G20    29.91S WCI  21
HILLSDALE      CLOUDY    30  23  74 SW7       29.88S WCI  23
HOWELL         LGT SNOW  28  27  96 SW7       29.86R WCI  21

CITY           SKY/WX    TMP DP  RH WIND       PRES   REMARKS
JACKSON        LGT SNOW  30  24  78 SW16      29.88S WCI  19
LAMBERTVILLE   CLOUDY    31  22  71 SW6       29.93S WCI  25
LANSING        LGT SNOW  25  24  96 E3        29.87S FOG
LAPEER         LGT SNOW  23  21  91 SW3       29.88S
MASON          LGT SNOW  29  25  84 SW6       29.86S WCI  23
MONROE         FLURRIES  30  23  77 SW12      29.92R WCI  20
MT. CLEMENS    LGT SNOW  25  24  99 CALM      29.89R FOG
PONTIAC        LGT SNOW  23  22  96 CALM      29.86R FOG
PORT HOPE        N/A     22  13  68 SW8       29.85R WCI  12
PORT HURON     LGT SNOW  23  19  86 CALM      29.91R
TRI CITIES     FLURRIES  22  18  85 SW5       29.88R WCI  16
MIDLAND        CLOUDY    22  17  80 CALM      29.87S
TROY           LGT SNOW  26  24  91 SW3       29.90S
SAGINAW HB     LGT SNOW  23  19  86 SW6       29.88R WCI  16
$$
MIZ043>046-050>051-056>058-064>065-071>073-077>080-160900-
SOUTHWEST LOWER MICHIGAN

CITY           SKY/WX    TMP DP  RH WIND       PRES   REMARKS
BATTLE CREEK   CLOUDY    30  24  78 SW12      29.88R WCI  20
BENTON HARBOR  CLOUDY    38  26  62 SW18G24   29.88R WCI  28
BIG RAPIDS     LGT SNOW  18  15  91 CALM      29.83S
COLDWATER      CLOUDY    31  23  70 SW9       29.90R WCI  23
HOLLAND        FLURRIES  35  32  88 W13G20    29.85S WCI  26
GRAND RAPIDS   LGT SNOW  25  23  92 SE5       29.85S VSB 1   WCI  19
IONIA          LGT SNOW  25  24  96 CALM      29.86R
KALAMAZOO      CLOUDY    31  23  72 SW9       29.88R WCI  23
LUDINGTON      LGT SNOW  23  20  89 CALM      29.84S
MARSHALL       LGT SNOW  28  26  89 SW8       29.88R WCI  20
MOUNT PLEASANT LGT SNOW  22  17  80 CALM      29.86R
MUSKEGON       LGT SNOW  26  22  84 E7        29.85S VSB 1   WCI  18
SOUTH HAVEN    CLOUDY    39  27  61 SW14G23   29.86S WCI  31
$$
MIZ016>042-160900-
NORTHERN LOWER MICHIGAN

CITY           SKY/WX    TMP DP  RH WIND       PRES   REMARKS
ALPENA         CLOUDY    20  14  77 W6        29.84R WCI  12
BEAVER ISLAND  CLOUDY    19  12  74 N3        29.85R
BELLAIRE       CLOUDY    23  17  77 CALM      29.85R
CADILLAC       PTCLDY    16  13  90 CALM      29.80R
CHARLEVOIX     CLOUDY    22  14  69 NW8       29.87R WCI  13
FRANKFORT      CLOUDY    22  16  77 CALM      29.85R
GAYLORD        LGT SNOW  17  13  84 CALM      29.79R FOG
GRAYLING       CLOUDY    17  12  80 SW6       29.81R WCI   9
HARBOR SPRINGS CLOUDY    19  10  69 N6        29.84R WCI  11
HOUGHTON LAKE  CLOUDY    18  13  80 SW6       29.82R WCI  10
MANISTEE       CLOUDY    22  15  75 E3        29.84S
OSCODA         CLOUDY    11   7  83 N3        29.85R
PELLSTON       LGT SNOW  17  12  80 NE10      29.85R WCI   5
ROGERS CITY    FLURRIES  19  14  79 W3        29.85R
TRAVERSE CITY  CLOUDY    21  14  74 SW6       29.84R WCI  13
$$
MIZ007>008-015-160900-
EASTERN UPPER MICHIGAN

CITY           SKY/WX    TMP DP  RH WIND       PRES   REMARKS
KINROSS        FLURRIES   5   1  83 NE10      29.85R WCI -10
MACKINAC ISLAN CLOUDY    16  10  78 NE12      29.84R WCI   3
NEWBERRY       FLURRIES  11  10  95 NE7       29.84R WCI   1
S. S. MARIE    CLEAR      4  -3  73 NE8       29.86R WCI  -9
MUNISING         N/A     13  10  88 S6        29.84R WCI   4
$$
MIZ004>006-011>014-085-160900-
CENTRAL UPPER MICHIGAN

CITY           SKY/WX    TMP DP  RH WIND       PRES   REMARKS
MANISTIQUE     CLOUDY     4   0  81 N3        29.84R
ESCANABA       CLOUDY    11   5  77 CALM      29.86R
MENOMINEE      CLOUDY    12   6  77 N3        29.87S
$$
MIZ001>003-009>011-084-160900-
WESTERN UPPER MICHIGAN

CITY           SKY/WX    TMP DP  RH WIND       PRES   REMARKS
IRON MOUNTAIN  CLOUDY     9   4  80 CALM      29.81R
HOUGHTON       PTCLDY     8   2  76 CALM      29.82R
COPPER HARBOR    N/A     19  13  77 E14       29.85R WCI   6
IRONWOOD       CLOUDY    11   7  84 SE5       29.80R WCI   3
$$

ABBREVIATIONS USED IN REMARKS
   TC - TEMPERATURE IN CELSIUS
  WCI - WIND CHILL INDEX
   HX - HEAT INDEX
  VSB - VISIBILITY





USA.gov is the U.S. government's official web portal to all federal, state and local government web resources and services.